FW6696 Weather Reports


time (UTC)temp
C
wind
direction
speed
KPH
gust
KPH
rain 1hr
cm
rain 24hr
cm
rain mn
cm
humidity
%
barometer
mb
20260510191019 23 101 1.6 3.2 0.00 0.00 0.00 63 1003.1
20260510190028 22 37 0.0 0.0 0.00 0.00 0.00 64 1002.9
20260510185038 22 110 0.0 0.0 0.00 0.00 0.00 63 1002.8
20260510184030 23 88 0.0 0.0 0.00 0.00 0.00 60 1002.7
20260510183024 23 220 1.6 4.8 0.00 0.00 0.00 63 1002.5
20260510182032 24 103 0.0 0.0 0.00 0.00 0.00 61 1002.5
20260510181031 25 57 1.6 3.2 0.00 0.00 0.00 56 1002.5
20260510180026 25 94 3.2 4.8 0.00 0.00 0.00 57 1002.6
20260510175026 25 117 1.6 4.8 0.00 0.00 0.00 58 1002.5
20260510174008 24 112 1.6 3.2 0.00 0.00 0.00 59 1002.7
20260510173022 22 64 1.6 3.2 0.00 0.00 0.00 59 1002.6
20260510171044 24 69 3.2 3.2 0.00 0.00 0.00 60 1002.8
20260510170023 25 145 1.6 3.2 0.00 0.00 0.00 52 1002.6
20260510165016 26 94 1.6 3.2 0.00 0.00 0.00 54 1002.5
20260510164040 26 76 3.2 4.8 0.00 0.00 0.00 53 1002.7
20260510163043 26 140 1.6 3.2 0.00 0.00 0.00 54 1002.5
20260510162007 25 79 1.6 3.2 0.00 0.00 0.00 58 1002.6
20260510161038 25 96 1.6 3.2 0.00 0.00 0.00 55 1002.8
20260510160010 25 13 4.8 6.4 0.00 0.00 0.00 55 1002.6
20260510155036 25 102 1.6 3.2 0.00 0.00 0.00 56 1002.7
20260510154028 25 128 1.6 3.2 0.00 0.00 0.00 56 1002.5
20260510151010 23 65 3.2 4.8 0.00 0.00 0.00 58 1002.6
20260510150040 24 182 3.2 4.8 0.00 0.00 0.00 60 1002.5
20260510145014 23 135 3.2 4.8 0.00 0.00 0.00 58 1003.2
20260510144027 23 143 3.2 4.8 0.00 0.00 0.00 59 1002.8
20260510143044 23 45 3.2 4.8 0.00 0.00 0.00 61 1003.0
20260510141010 21 134 1.6 3.2 0.00 0.00 0.00 63 1003.1
20260510140040 21 124 1.6 3.2 0.00 0.00 0.00 67 1002.8
20260510135038 20 182 3.2 4.8 0.00 0.00 0.00 71 1002.9
20260510134038 20 80 0.0 0.0 0.00 0.00 0.00 70 1003.0
20260510133023 20 101 0.0 0.0 0.00 0.00 0.00 71 1002.8
20260510132043 19 156 3.2 4.8 0.00 0.00 0.00 71 1002.5
20260510131023 19 191 3.2 4.8 0.00 0.00 0.00 73 1002.8
20260510130002 18 102 0.0 0.0 0.00 0.00 0.00 75 1002.7
20260510125018 18 88 1.6 3.2 0.00 0.00 0.00 77 1002.8
20260510124033 16 129 0.0 0.0 0.00 0.00 0.00 84 1002.7
20260510121034 13 92 0.0 0.0 0.00 0.00 0.00 99 1002.4
20260510120026 12 97 0.0 0.0 0.00 0.00 0.00 99 1002.7
20260510115003 11 100 0.0 0.0 0.00 0.00 0.00 99 1002.4
20260510114005 11 105 0.0 0.0 0.00 0.00 0.00 99 1002.2
20260510113016 11 97 0.0 0.0 0.00 0.00 0.00 99 1002.0
20260510112030 10 97 0.0 0.0 0.00 0.00 0.00 99 1002.0
20260510111040 10 97 0.0 0.0 0.00 0.00 0.00 99 1001.8
20260510105037 10 88 0.0 0.0 0.00 0.00 0.00 99 1001.4
20260510104025 10 101 0.0 0.0 0.00 0.00 0.00 99 1001.3
20260510103003 10 93 0.0 0.0 0.00 0.00 0.00 99 1001.4
20260510102016 10 93 0.0 0.0 0.00 0.00 0.00 99 1001.4
20260510101038 10 92 0.0 0.0 0.00 0.00 0.00 99 1001.1
20260510100013 10 97 0.0 0.0 0.00 0.00 0.00 99 1001.1
20260510093035 10 92 0.0 0.0 0.00 0.00 0.00 99 1000.7
20260510092038 10 89 1.6 3.2 0.00 0.00 0.00 99 1000.6
20260510091041 10 90 0.0 0.0 0.00 0.00 0.00 99 1000.4
20260510090023 10 83 0.0 0.0 0.00 0.00 0.00 99 1000.6
20260510085045 10 93 0.0 0.0 0.00 0.00 0.00 99 1000.3
20260510084039 10 91 0.0 0.0 0.00 0.00 0.00 99 1000.3
20260510083017 10 79 0.0 0.0 0.00 0.00 0.00 99 1000.3
20260510082028 10 97 0.0 0.0 0.00 0.00 0.00 99 1000.1
20260510081029 10 96 0.0 0.0 0.00 0.00 0.00 99 1000.1
20260510080034 10 98 0.0 0.0 0.00 0.00 0.00 99 1000.3
20260510074028 10 90 0.0 0.0 0.00 0.00 0.00 99 1000.0
20260510073029 10 102 0.0 0.0 0.00 0.00 0.00 99 999.9
20260510072011 10 92 0.0 0.0 0.00 0.00 0.00 99 1000.1
20260510071019 10 94 0.0 0.0 0.00 0.00 0.00 99 1000.2
20260510070001 10 96 0.0 0.0 0.00 0.00 0.00 99 1000.0
20260510065040 10 92 0.0 0.0 0.00 0.00 0.00 99 999.8
20260510063020 10 83 0.0 0.0 0.00 0.00 0.00 99 1000.1
20260510062035 11 92 0.0 0.0 0.00 0.00 0.00 99 1000.1
20260510060015 11 93 0.0 0.0 0.00 0.00 0.00 99 1000.2
20260510055010 11 100 0.0 0.0 0.00 0.00 0.00 99 1000.2
20260510054019 11 93 0.0 0.0 0.00 0.00 0.00 99 1000.1
20260510053037 11 93 0.0 0.0 0.00 0.00 0.00 99 1000.3
20260510051019 11 93 0.0 0.0 0.00 0.00 0.00 99 1000.6
20260510050013 11 94 0.0 0.0 0.00 0.00 0.00 99 1000.4
20260510045042 11 93 0.0 0.0 0.00 0.00 0.00 99 1000.6
20260510044013 11 93 0.0 0.0 0.00 0.00 0.00 99 1000.5
20260510041018 11 92 0.0 0.0 0.00 0.00 0.00 98 1000.6
20260510035035 12 103 0.0 0.0 0.00 0.00 0.00 97 1000.7
20260510034015 12 89 0.0 0.0 0.00 0.00 0.00 96 1000.5
20260510031030 12 88 0.0 0.0 0.00 0.00 0.00 95 1000.5
20260510030046 12 90 0.0 0.0 0.00 0.00 0.00 94 1000.5
20260510025026 12 93 0.0 0.0 0.00 0.00 0.00 93 1000.2
20260510024031 13 90 0.0 0.0 0.00 0.00 0.00 93 1000.2
20260510021028 13 94 0.0 0.0 0.00 0.00 0.00 90 999.6
20260510015034 13 91 0.0 0.0 0.00 0.00 0.00 88 999.4
20260510014040 14 94 0.0 0.0 0.00 0.00 0.00 87 999.4
20260510013001 14 99 0.0 0.0 0.00 0.00 0.00 86 999.5
20260510012043 15 87 0.0 0.0 0.00 0.00 0.00 84 999.1
20260510011042 15 93 0.0 0.0 0.00 0.00 0.00 83 998.9
20260510010042 15 93 0.0 0.0 0.00 0.00 0.00 82 999.0
20260510005020 16 93 0.0 0.0 0.00 0.00 0.00 80 998.4
20260510003009 17 92 0.0 0.0 0.00 0.00 0.00 77 998.6
20260510002008 17 93 0.0 0.0 0.00 0.00 0.00 75 998.2
20260510000025 17 81 0.0 0.0 0.00 0.00 0.00 73 998.1
20260509235003 18 94 0.0 0.0 0.00 0.00 0.00 73 998.1
20260509234017 18 95 0.0 0.0 0.00 0.00 0.00 71 998.2
20260509233003 18 91 0.0 0.0 0.00 0.00 0.00 70 998.3
20260509232013 19 92 1.6 3.2 0.00 0.00 0.00 68 998.1
20260509230042 19 74 0.0 0.0 0.00 0.00 0.00 68 998.0
20260509225041 20 109 0.0 0.0 0.00 0.00 0.00 67 997.8
20260509222036 20 141 1.6 3.2 0.00 0.00 0.00 68 997.9
20260509221014 20 113 1.6 3.2 0.00 0.00 0.00 66 997.9
20260509215004 21 95 1.6 3.2 0.00 0.00 0.00 66 998.1
20260509214022 21 113 1.6 3.2 0.00 0.00 0.00 64 998.0
20260509212042 21 96 0.0 0.0 0.00 0.00 0.00 62 998.1
20260509211039 21 217 3.2 4.8 0.00 0.00 0.00 64 998.3
20260509210005 21 104 1.6 3.2 0.00 0.00 0.00 62 998.3
20260509205032 21 94 1.6 3.2 0.00 0.00 0.00 65 998.3
20260509204021 21 97 1.6 3.2 0.00 0.00 0.00 64 998.3
20260509203035 20 110 1.6 3.2 0.00 0.00 0.00 68 998.2
20260509202022 20 245 3.2 4.8 0.00 0.00 0.00 65 998.0
20260509201014 20 112 1.6 4.8 0.00 0.00 0.00 63 997.9
20260509200001 21 109 1.6 3.2 0.00 0.00 0.00 62 997.9
20260509195040 21 100 1.6 3.2 0.00 0.00 0.00 61 997.8
20260509194034 21 151 3.2 4.8 0.00 0.00 0.00 63 997.9
20260509193025 21 179 1.6 3.2 0.00 0.00 0.00 62 997.8